Location: Asheville, NC
(35.6000°N, 82.5500°W)
Time: 00:07:33
(UTC-05:00)

Vanguard 2 Rocket - Pass Details

Date: 14 December 2017
Orbit: 556 x 3326 km, 32.9° (Epoch: 19 January)

Event Time Altitude Azimuth Distance (km) Brightness Sun altitude
Rises 18:39:35 0° 230° (SW) 4,431 11.7 -16.1°
Reaches altitude 10° 18:42:07 10° 225° (SW) 3,748 11.0 -16.6°
Maximum altitude 18:52:15 55° 151° (SSE) 2,598 9.0 -18.5°
Enters shadow 19:02:51 25° 87° (E) 4,529 9.8 -20.6°
